CAPE
0 0 0 0 0 0 0 0 0 0 0 0 0 0 0 0 0 0 0 0 0 0 0 0 0 0 0 0 0 0 0 0 0 0 5 64 181 280 376 489 571 694 864 1008 1131 1222 1279 1344 1510 1720 1858 2006 2108 2123 2134 2160 2142 2074 2053 2058 2067 2121 2197
0 0 0 0 0 0 0 0 0 0 0 0 0 0 0 0 0 0 0 0 0 0 0 0 0 0 0 0 0 0 0 0 0 0 1 30 136 283 396 512 624 724 863 1006 1124 1250 1330 1382 1473 1692 1874 2021 2148 2197 2202 2229 2234 2180 2100 2048 2060 2132 2262
0 0 0 0 0 0 0 0 0 0 0 0 0 0 0 0 0 0 0 0 0 0 0 0 0 0 0 0 0 0 0 0 0 0 0 15 62 228 386 518 632 764 885 1015 1121 1230 1342 1418 1480 1594 1820 2006 2132 2200 2220 2234 2276 2263 2186 2134 2124 2182 2304
0 0 0 0 0 0 0 0 0 0 0 0 0 0 0 0 0 0 0 0 0 0 0 0 0 0 0 0 0 0 0 0 0 0 0 16 72 143 327 493 607 728 878 1018 1141 1226 1328 1429 1504 1566 1710 1953 2129 2202 2215 2230 2248 2270 2249 2263 2260 2309 2436
0 0 0 0 0 0 0 0 0 0 0 0 0 0 0 0 0 0 0 0 0 0 0 0 0 0 0 0 0 0 0 0 0 0 0 18 78 112 219 417 572 697 824 974 1120 1214 1288 1401 1494 1570 1636 1888 2117 2216 2221 2216 2217 2240 2272 2309 2376 2440 2525
0 0 0 0 0 0 0 0 0 0 0 0 0 0 0 0 0 0 0 0 0 0 0 0 0 0 0 0 0 0 0 0 0 0 0 12 31 96 145 292 470 625 779 913 1054 1167 1272 1342 1450 1530 1609 1803 2036 2196 2250 2253 2228 2226 2258 2310 2376 2485 2529
0 0 0 0 0 0 0 0 0 0 0 0 0 0 0 0 0 0 0 0 0 0 0 0 0 0 0 0 0 0 0 0 0 0 0 3 22 43 117 212 360 528 691 842 944 1094 1218 1314 1409 1496 1599 1777 1999 2173 2252 2254 2231 2227 2256 2239 2339 2443 2542
0 0 0 0 0 0 0 0 0 0 0 0 0 0 0 0 0 0 0 0 0 0 0 0 0 0 0 0 0 0 0 0 0 0 0 0 0 16 90 168 304 436 601 744 872 991 1121 1259 1330 1416 1530 1721 1958 2118 2205 2224 2202 2194 2166 2186 2260 2334 2464
0 0 0 0 0 0 0 0 0 0 0 0 0 0 0 0 0 0 0 0 0 0 0 0 0 0 0 0 0 0 0 0 0 0 0 0 1 4 10 121 263 407 533 661 810 928 1042 1137 1212 1309 1432 1637 1878 2082 2158 2158 2159 2140 2096 2088 2152 2230 2294
0 0 0 0 0 0 0 0 0 0 0 0 0 0 0 0 0 0 0 0 0 0 0 0 0 0 0 0 0 0 0 0 0 0 0 0 0 0 2 87 216 398 524 626 738 880 1001 1074 1136 1204 1330 1554 1782 1998 2114 2138 2117 2042 2011 2019 2045 2128 2175
0 0 0 0 0 0 0 0 0 0 0 0 0 0 0 0 0 0 0 0 0 0 0 0 0 0 0 0 0 0 0 0 0 0 0 0 0 0 0 5 90 343 523 625 711 807 901 1005 1078 1152 1284 1494 1701 1895 2037 2100 2073 2009 1957 1938 1994 2049 2072
0 0 0 0 0 0 0 0 0 0 0 0 0 0 0 0 0 0 0 0 0 0 0 0 0 0 0 0 0 0 0 0 0 0 0 54 0 0 0 4 45 296 472 599 702 773 842 909 1026 1128 1275 1476 1668 1815 1942 2010 2021 2007 1942 1882 1886 1958 2016
0 0 0 0 0 0 0 0 0 0 0 0 0 0 0 0 0 0 0 0 0 0 0 0 0 0 0 0 0 0 0 0 0 0 0 2 0 0 0 0 15 118 406 519 634 734 795 880 1001 1123 1287 1474 1641 1770 1854 1910 1967 1992 1938 1911 1823 1824 1910
0 0 0 0 0 0 0 0 0 0 0 0 0 0 0 0 0 0 0 0 0 0 0 0 0 0 0 0 0 0 0 17 93 0 0 54 80 0 0 91 12 151 373 472 569 656 750 880 1020 1145 1293 1474 1627 1728 1792 1858 1914 1921 1903 1889 1881 1774 1714
0 0 0 0 0 0 0 0 0 0 0 0 0 0 0 0 0 0 0 0 0 0 0 0 0 0 0 0 0 0 0 73 49 0 65 159 167 173 224 235 263 306 315 430 510 602 722 864 1026 1175 1324 1488 1635 1728 1774 1822 1844 1858 1831 1839 1774 1815 1774
0 0 0 0 0 0 0 0 0 0 0 0 0 0 0 0 0 0 0 0 0 0 0 0 0 0 0 0 0 0 28 62 77 0 206 204 190 222 246 282 304 341 352 438 525 623 718 841 1000 1186 1354 1502 1619 1712 1766 1798 1803 1796 1787 1784 1782 1569 1387
0 0 0 0 0 0 0 0 0 0 0 0 0 0 0 0 0 0 0 0 0 0 0 0 0 0 0 0 0 0 58 136 185 243 249 218 248 243 257 91 172 358 420 515 581 648 744 850 1000 1184 1377 1530 1626 1687 1724 1749 1749 1755 1762 1739 1616 1686 1686
0 0 0 0 0 0 0 0 0 0 0 0 0 0 0 0 0 0 0 0 0 0 0 0 0 0 0 0 0 0 0 79 212 292 278 261 260 270 217 162 293 366 454 545 640 718 804 922 1040 1201 1421 1593 1654 1684 1732 1735 1741 1749 1715 1650 1640 1642 1633
0 0 0 0 0 0 0 0 0 0 0 0 0 0 0 0 0 0 0 0 0 0 0 0 0 0 0 0 0 0 0 123 188 242 304 319 313 332 348 381 426 480 520 570 668 800 889 1014 1234 1420 1556 1662 1735 1761 1769 1776 1768 1754 1722 1694 1646 1640 1626
0 0 0 0 0 0 0 0 0 1 0 0 0 2 0 0 0 0 0 0 0 0 0 0 0 0 0 0 0 0 0 4 36 84 264 321 392 448 486 510 554 605 622 674 720 791 882 1041 1314 1568 1708 1755 1804 1846 1828 1844 1811 1802 1798 1746 1703 1712 1666
0 0 0 0 0 6 0 0 2 0 3 0 4 8 6 2 2 0 0 0 0 0 0 0 0 0 0 0 3 0 0 0 0 122 294 363 469 562 614 614 651 671 697 764 847 960 1020 1114 1200 1479 1692 1814 1874 1915 1933 1922 1949 1933 1912 1868 1863 1844 1862
2 11 8 0 6 10 0 0 0 0 2 45 10 17 13 10 83 55 44 72 4 0 0 0 1 0 0 0 0 0 0 0 102 190 237 376 510 620 645 714 862 1057 1206 1317 1568 1545 1497 1408 1349 1317 1553 1770 1892 1983 2026 2052 2057 2071 2033 2027 1999 2007 1969
0 9 2 8 0 1 0 0 0 68 108 78 95 5 52 128 120 161 58 106 83 0 0 0 0 0 0 0 0 0 0 67 79 125 271 323 511 652 731 829 950 1174 1474 1782 1932 1840 1682 1499 1341 1335 1416 1646 1818 1916 1983 2019 2048 2070 2043 2029 2040 2032 2054
15 24 9 10 118 165 31 0 40 71 170 99 30 66 64 144 124 104 44 156 120 0 0 0 0 0 0 0 0 0 77 76 79 185 242 258 280 372 361 576 1002 1456 1663 1830 1840 1717 1509 1534 1403 1377 1417 1484 1615 1718 1801 1861 1918 1946 1972 1958 1982 1990 2013
34 20 60 188 148 217 168 0 162 80 104 60 13 21 131 122 132 143 162 158 134 55 0 0 0 0 4 104 289 233 44 740 1421 1716 1758 1578 1395 1324 1228 1118 1187 1267 1468 1509 1518 1700 1702 1554 1429 1431 1414 1452 1495 1536 1604 1665 1722 1779 1807 1828 1866 1890 1911
44 39 157 55 226 177 164 266 148 97 43 1 10 217 116 162 150 153 221 216 164 46 267 396 580 784 979 1054 1044 1149 1298 1512 1732 1702 1893 2016 2002 2034 1688 1342 1110 1299 1459 1472 1504 1700 1747 1665 1521 1486 1476 1453 1496 1520 1550 1555 1610 1626 1673 1692 1700 1734 1720
65 12 71 185 277 102 262 88 154 36 123 12 58 184 172 183 183 170 182 195 262 301 383 542 784 1028 1191 1335 1508 1655 1826 1946 2055 2116 2140 2327 2481 2426 2072 1656 1511 1383 1484 1566 1590 1737 1716 1682 1625 1599 1542 1508 1504 1544 1505 1518 1563 1648 1684 1754 1780 1679 1637
58 74 22 93 474 362 112 103 108 58 24 20 75 125 178 170 189 174 175 178 197 234 298 428 524 599 685 788 941 1186 1553 1925 2146 2298 2382 2424 2570 2604 2601 2478 2298 2164 2005 1878 1878 1799 1811 1787 1745 1701 1593 1600 1618 1612 1642 1580 1712 1872 1923 1856 1630 1462 1433
18 29 48 142 128 185 68 97 85 91 49 24 43 248 294 191 97 195 223 243 262 182 174 152 216 352 602 734 784 823 1062 1460 1673 1754 1875 1960 2167 2432 2528 2582 2442 2392 2390 2453 2213 2020 1948 1983 1980 1970 1917 1816 1891 1896 1843 1852 1898 1863 1794 1624 1394 1200 1084
0 15 0 108 33 69 110 85 84 31 14 40 44 38 230 59 70 34 23 151 136 164 196 198 220 156 202 409 463 558 775 1044 1274 1426 1544 1725 1913 1908 2176 2370 2570 2643 2675 2620 2529 2364 2278 2148 2141 2134 2152 2140 2002 1935 1928 1997 1897 1646 1454 1264 1081 843 776
6 18 2 76 5 27 67 24 17 24 0 26 56 60 76 58 48 34 52 46 56 68 64 42 105 98 381 431 485 532 601 706 867 1091 1278 1330 1436 1753 2110 2174 2314 2533 2651 2591 2470 2314 2382 2286 2238 2182 2178 2221 2224 2082 2111 2026 1700 1311 1119 1070 856 642 645
1 0 0 2 0 14 4 17 12 6 0 67 8 20 60 47 42 22 32 12 70 72 57 34 44 33 162 271 431 594 721 749 774 951 1052 1056 1263 1313 1433 1880 2076 2320 2415 2512 2388 2374 2354 2308 2235 2218 2193 2205 2188 2150 2148 1947 1418 1146 1050 941 711 546 534
2 0 0 0 3 14 2 4 0 0 0 42 1 56 73 68 80 88 102 117 105 74 67 60 64 70 70 72 78 90 117 548 528 502 96 623 646 871 1159 1250 1528 1780 1946 2096 2181 2212 2267 2278 2253 2123 2088 2030 1990 1983 1822 1520 1369 1047 976 1037 866 598 593
0 4 5 0 4 1 2 2 2 8 0 0 0 0 0 0 9 76 93 92 85 85 64 40 22 31 43 58 62 60 346 624 694 694 707 732 753 830 978 1113 1392 1618 1806 2024 2174 2299 2404 2380 2244 2032 1791 1684 1603 1584 1550 1490 1368 900 933 1118 1092 970 792
0 206 308 0 0 0 0 0 0 0 0 0 0 0 0 0 0 12 35 53 46 10 3 0 376 490 459 456 478 552 585 663 728 753 725 626 636 678 714 850 1031 1269 1547 1788 2025 2124 2156 2141 2033 1706 1431 1375 1403 1411 1452 1478 1211 846 794 988 1006 924 824
28 186 25 0 0 0 0 0 0 0 0 0 0 0 0 0 0 0 0 0 0 0 0 0 0 101 220 326 482 597 654 629 600 695 742 638 605 596 615 673 824 1012 1210 1385 1587 1731 1754 1741 1652 1402 1295 1315 1377 1370 1262 1135 906 675 583 733 823 764 575
25 0 0 264 22 0 0 0 0 0 0 0 0 0 0 0 0 0 0 0 0 0 0 0 0 0 0 0 0 114 519 550 704 788 699 733 684 656 621 632 712 819 968 1112 1250 1374 1460 1478 1448 1350 1298 1300 1250 1132 975 849 686 589 458 346 525 505 337
Wind_Speed
nan nan nan nan nan nan nan nan nan nan nan nan nan nan nan nan nan nan nan nan nan nan nan nan nan nan nan nan nan nan nan nan nan nan nan nan 26 24 21 18 18 21 19 19 20 20 20 19 19 19 20 21 22 22 22 21 21 21 22 23 25 26 26
nan nan nan nan nan nan nan nan nan nan nan nan nan nan nan nan nan nan nan nan nan nan nan nan nan nan nan nan nan nan nan nan nan nan nan nan 23 21 20 18 19 23 25 27 25 24 25 24 24 22 20 19 19 20 22 23 22 22 22 24 26 27 28
nan nan nan nan nan nan nan nan nan nan nan nan nan nan nan nan nan nan nan nan nan nan nan nan nan nan nan nan nan nan nan nan nan nan nan nan nan 18 17 16 18 21 23 25 26 27 26 26 25 23 20 17 15 16 18 20 22 22 24 24 25 26 28
nan nan nan nan nan nan nan nan nan nan nan nan nan nan nan nan nan nan nan nan nan nan nan nan nan nan nan nan nan nan nan nan nan nan nan nan nan 17 17 16 19 23 26 28 29 29 28 27 26 24 23 19 18 18 19 19 19 20 23 24 26 28 28
nan nan nan nan nan nan nan nan nan nan nan nan nan nan nan nan nan nan nan nan nan nan nan nan nan nan nan nan nan nan nan nan nan nan nan nan nan 16 16 17 20 23 25 26 26 27 26 26 25 24 22 22 21 20 19 19 21 22 23 26 28 29 32
nan nan nan nan nan nan nan nan nan nan nan nan nan nan nan nan nan nan nan nan nan nan nan nan nan nan nan nan nan nan nan nan nan nan nan nan nan nan 16 17 20 22 23 24 24 24 22 22 23 24 23 21 21 21 21 21 21 22 24 27 28 32 34
nan nan nan nan nan nan nan nan nan nan nan nan nan nan nan nan nan nan nan nan nan nan nan nan nan nan nan nan nan nan nan nan nan nan nan nan nan nan 18 19 20 22 23 24 26 26 25 25 26 26 24 22 22 23 23 23 24 25 26 29 31 33 34
nan nan nan nan nan nan nan nan nan nan nan nan nan nan nan nan nan nan nan nan nan nan nan nan nan nan nan nan nan nan nan nan nan nan nan nan nan nan nan 18 19 21 21 22 22 21 19 19 19 20 20 20 21 21 23 24 26 28 29 31 33 34 35
nan nan nan nan nan nan nan nan nan nan nan nan nan nan nan nan nan nan nan nan nan nan nan nan nan nan nan nan nan nan nan nan nan nan nan nan nan nan nan 19 21 22 22 22 22 20 18 19 19 19 19 20 21 22 24 26 27 29 31 33 35 36 37
nan nan nan nan nan nan nan nan nan nan nan nan nan nan nan nan nan nan nan nan nan nan nan nan nan nan nan nan nan nan nan nan nan nan nan nan nan nan nan nan 22 21 20 19 18 17 15 15 16 17 19 20 21 22 24 26 28 30 33 35 37 38 38
nan nan nan nan nan nan nan nan nan nan nan nan nan nan nan nan nan nan nan nan nan nan nan nan nan nan nan nan nan nan nan nan nan nan nan nan nan nan nan nan nan 18 16 18 19 19 18 17 16 17 20 21 23 23 24 26 28 31 33 36 38 39 40
nan nan nan nan nan nan nan nan nan nan nan nan nan nan nan nan nan nan nan nan nan nan nan nan nan nan nan nan nan nan nan nan nan nan nan nan nan nan nan nan nan 19 19 19 20 20 19 16 15 16 17 21 23 25 27 28 30 33 34 36 38 39 42
nan nan nan nan nan nan nan nan nan nan nan nan nan nan nan nan nan nan nan nan nan nan nan nan nan nan nan nan nan nan nan nan nan nan nan nan nan nan nan nan nan 19 20 21 22 21 20 17 16 17 18 20 22 23 26 28 31 32 34 36 38 41 44
nan nan nan nan nan nan nan nan nan nan nan nan nan nan nan nan nan nan nan nan nan nan nan nan nan nan nan nan nan nan nan nan nan nan nan nan nan nan nan nan nan 20 21 22 22 23 23 21 18 18 19 22 24 27 28 30 32 33 36 38 42 45 48
nan nan nan nan nan nan nan nan nan nan nan nan nan nan nan nan nan nan nan nan nan nan nan nan nan nan nan nan nan nan nan nan nan nan nan 21 22 20 19 21 21 21 22 22 22 23 25 24 23 22 23 25 27 29 30 30 31 34 37 40 44 51 58
nan nan nan nan nan nan nan nan nan nan nan nan nan nan nan nan nan nan nan nan nan nan nan nan nan nan nan nan nan nan nan nan nan nan 22 23 23 21 21 24 24 23 23 23 24 25 27 27 27 25 26 29 31 31 30 28 30 33 37 43 52 57 58
nan nan nan nan nan nan nan nan nan nan nan nan nan nan nan nan nan nan nan nan nan nan nan nan nan nan nan nan nan nan nan 27 29 28 27 27 24 21 24 nan 26 25 26 25 25 27 29 30 30 28 30 32 33 32 30 28 32 37 44 51 54 55 55
nan nan nan nan nan nan nan nan nan nan nan nan nan nan nan nan nan nan nan nan nan nan nan nan nan nan nan nan nan nan nan nan 30 31 30 27 24 25 26 28 29 28 27 26 27 30 32 33 33 32 32 33 32 31 32 35 39 44 51 53 53 55 55
nan nan nan nan nan nan nan nan nan nan nan nan nan nan nan nan nan nan nan nan nan nan nan nan nan nan nan nan nan nan nan 32 30 32 30 26 27 29 30 30 29 30 29 31 34 36 37 38 39 39 36 34 35 36 38 41 44 48 51 53 54 56 55
nan nan nan nan nan nan nan nan nan nan nan nan nan nan nan nan nan nan nan nan nan nan nan nan nan nan nan nan nan nan nan nan nan nan 29 27 28 29 29 31 32 33 34 35 37 38 40 42 42 43 41 42 43 42 44 47 48 51 54 55 56 58 57
nan nan nan nan nan nan nan nan nan nan nan nan nan nan nan nan nan nan nan nan nan nan nan nan nan nan nan nan nan nan nan nan nan 34 31 32 29 29 30 33 34 35 37 38 38 41 41 41 43 43 44 46 48 49 50 50 54 56 58 58 59 60 59
nan nan nan nan nan nan nan nan nan nan nan nan nan nan nan nan nan nan nan nan nan nan nan nan nan nan nan nan nan nan nan nan 39 39 38 34 33 34 37 36 36 37 38 40 41 43 43 42 42 43 45 47 50 52 54 55 59 60 61 61 62 62 60
nan nan nan nan nan nan nan nan nan nan 49 nan nan nan nan 37 41 39 nan 33 nan nan nan nan nan nan nan nan nan nan nan nan nan 41 41 40 38 37 38 38 40 39 37 40 43 44 45 44 42 44 46 50 52 54 57 59 61 62 62 62 62 60 58
nan nan nan nan 34 34 nan nan nan nan 48 nan nan nan nan 38 41 39 nan 37 40 nan nan nan nan nan nan nan nan nan nan nan nan 36 39 40 40 40 38 41 44 45 43 45 44 45 45 44 46 48 50 52 54 56 57 60 61 61 61 62 61 59 59
nan nan nan 38 35 32 31 nan 35 nan 42 nan nan nan 37 40 39 42 44 40 41 nan nan nan nan nan nan 35 35 38 nan 38 37 36 37 38 39 42 46 50 52 52 50 48 47 47 46 47 48 50 52 54 55 56 58 59 59 58 60 60 61 59 56
nan nan 33 nan 32 30 32 33 33 nan nan nan nan 38 37 36 41 45 46 45 45 nan 54 53 48 43 43 41 42 47 47 43 37 38 39 43 46 46 48 51 53 54 54 53 53 51 50 50 52 54 55 56 57 58 58 56 55 58 60 60 58 56 53
nan nan nan 34 33 32 43 nan 36 nan 39 nan nan 39 37 36 39 47 48 46 41 46 48 47 45 45 48 51 51 51 51 53 51 49 48 48 48 48 50 54 53 57 56 53 52 50 51 53 55 57 58 59 59 58 56 55 57 57 57 56 54 52 51
nan nan nan nan 31 32 39 39 39 nan nan nan nan 41 43 37 38 43 45 44 39 40 42 40 42 43 46 46 48 50 50 53 53 53 51 51 52 54 56 58 58 59 57 54 54 53 53 55 57 58 59 60 59 59 58 57 56 54 52 50 50 49 49
nan nan nan 33 33 35 nan nan nan nan nan nan nan 42 44 44 nan 32 37 36 36 37 40 41 42 45 43 44 46 48 45 48 50 52 51 52 55 55 57 57 54 54 57 57 56 55 56 57 58 58 58 61 62 62 58 55 52 49 48 48 48 47 47
nan nan nan 37 nan nan 48 nan nan nan nan nan nan nan 45 nan nan nan nan 31 32 32 33 41 38 38 37 42 41 42 43 44 44 45 48 50 51 53 54 54 56 57 56 57 59 61 62 61 59 59 61 63 62 58 53 49 47 46 47 47 47 46 47
nan nan nan nan nan nan nan nan nan nan nan nan nan nan nan nan nan nan nan nan nan nan nan nan 39 nan 38 40 39 38 40 42 42 45 49 51 53 55 56 56 59 60 60 61 63 66 65 62 61 62 62 57 53 49 46 45 46 46 47 47 47 46 46
nan nan nan nan nan nan nan nan nan nan nan nan nan nan nan nan nan nan nan nan nan nan nan nan nan nan 37 40 39 39 39 42 45 49 51 52 54 56 60 59 60 60 60 60 62 63 62 57 54 51 47 44 43 43 44 44 45 46 46 46 46 45 44
nan nan nan nan nan nan nan nan nan nan nan nan nan nan nan nan nan nan 49 47 44 nan nan nan nan nan nan nan nan nan 40 42 44 46 nan 47 49 52 56 58 60 61 61 61 59 55 50 46 42 40 40 41 42 43 42 42 42 43 42 42 42 45 46
nan nan nan nan nan nan nan nan nan nan nan nan nan nan nan nan nan nan nan nan nan nan nan nan nan nan nan nan nan nan 43 43 41 41 44 46 49 49 48 48 52 56 58 55 48 43 40 39 40 41 42 42 41 41 42 42 42 42 43 44 45 45 46
nan 38 42 nan nan nan nan nan nan nan nan nan nan nan nan nan nan nan nan nan nan nan nan nan 51 48 46 44 45 47 46 44 41 40 39 40 40 42 42 42 39 41 42 39 34 33 35 37 38 39 39 39 40 41 41 41 43 44 45 46 45 46 48
nan 39 nan nan nan nan nan nan nan nan nan nan nan nan nan nan nan nan nan nan nan nan nan nan nan 50 48 46 47 46 43 42 40 38 37 37 37 38 40 38 33 32 32 31 31 33 35 36 37 37 38 38 39 41 42 42 44 45 46 48 48 48 47
nan nan nan 49 nan nan nan nan nan nan nan nan nan nan nan nan nan nan nan nan nan nan nan nan nan nan nan nan nan 42 39 37 37 38 38 38 38 38 36 36 34 32 31 32 33 35 36 37 38 38 39 38 40 42 44 45 46 48 49 49 49 49 48
Wind_Direction
nan nan nan nan nan nan nan nan nan nan nan nan nan nan nan nan nan nan nan nan nan nan nan nan nan nan nan nan nan nan nan nan nan nan nan nan 319 323 327 337 345 347 340 338 336 335 332 328 323 326 329 325 327 321 317 319 317 311 313 315 313 311 311
nan nan nan nan nan nan nan nan nan nan nan nan nan nan nan nan nan nan nan nan nan nan nan nan nan nan nan nan nan nan nan nan nan nan nan nan 315 318 323 333 340 340 340 342 342 341 339 337 337 336 336 332 327 320 319 318 314 315 313 311 313 313 313
nan nan nan nan nan nan nan nan nan nan nan nan nan nan nan nan nan nan nan nan nan nan nan nan nan nan nan nan nan nan nan nan nan nan nan nan nan 303 308 326 330 331 334 338 341 342 341 340 339 339 338 332 324 321 317 315 321 321 315 308 308 307 309
nan nan nan nan nan nan nan nan nan nan nan nan nan nan nan nan nan nan nan nan nan nan nan nan nan nan nan nan nan nan nan nan nan nan nan nan nan 311 315 324 326 330 336 339 340 340 338 337 336 337 337 334 341 337 329 325 317 305 304 311 309 308 308
nan nan nan nan nan nan nan nan nan nan nan nan nan nan nan nan nan nan nan nan nan nan nan nan nan nan nan nan nan nan nan nan nan nan nan nan nan 305 315 320 319 327 333 336 338 337 336 334 332 329 330 340 347 338 336 330 324 321 318 315 311 312 307
nan nan nan nan nan nan nan nan nan nan nan nan nan nan nan nan nan nan nan nan nan nan nan nan nan nan nan nan nan nan nan nan nan nan nan nan nan nan 315 315 315 324 328 333 336 332 327 322 325 332 339 342 343 343 343 336 331 327 324 317 317 313 312
nan nan nan nan nan nan nan nan nan nan nan nan nan nan nan nan nan nan nan nan nan nan nan nan nan nan nan nan nan nan nan nan nan nan nan nan nan nan 310 310 314 319 322 328 333 334 334 338 342 346 347 347 348 349 343 336 335 335 324 322 316 314 314
nan nan nan nan nan nan nan nan nan nan nan nan nan nan nan nan nan nan nan nan nan nan nan nan nan nan nan nan nan nan nan nan nan nan nan nan nan nan nan 301 300 307 311 316 322 328 331 340 346 350 349 349 346 343 340 335 337 334 324 319 319 320 320
nan nan nan nan nan nan nan nan nan nan nan nan nan nan nan nan nan nan nan nan nan nan nan nan nan nan nan nan nan nan nan nan nan nan nan nan nan nan nan 289 292 291 299 317 334 341 346 354 359 354 348 345 342 340 336 334 333 327 320 317 318 321 323
nan nan nan nan nan nan nan nan nan nan nan nan nan nan nan nan nan nan nan nan nan nan nan nan nan nan nan nan nan nan nan nan nan nan nan nan nan nan nan nan 281 300 312 322 335 348 354 356 352 346 341 337 335 332 332 328 323 316 316 314 318 319 320
nan nan nan nan nan nan nan nan nan nan nan nan nan nan nan nan nan nan nan nan nan nan nan nan nan nan nan nan nan nan nan nan nan nan nan nan nan nan nan nan nan 284 300 329 339 342 344 342 336 334 333 332 328 325 323 320 314 312 313 313 316 319 319
nan nan nan nan nan nan nan nan nan nan nan nan nan nan nan nan nan nan nan nan nan nan nan nan nan nan nan nan nan nan nan nan nan nan nan nan nan nan nan nan nan 321 328 326 329 333 333 331 327 324 326 328 327 325 324 316 310 309 309 314 318 320 319
nan nan nan nan nan nan nan nan nan nan nan nan nan nan nan nan nan nan nan nan nan nan nan nan nan nan nan nan nan nan nan nan nan nan nan nan nan nan nan nan nan 309 317 321 325 326 327 320 321 323 321 324 321 318 316 309 308 311 309 314 319 318 315
nan nan nan nan nan nan nan nan nan nan nan nan nan nan nan nan nan nan nan nan nan nan nan nan nan nan nan nan nan nan nan nan nan nan nan nan nan nan nan nan nan 311 318 318 320 320 316 319 321 318 318 321 323 323 321 315 313 310 308 315 317 310 300
nan nan nan nan nan nan nan nan nan nan nan nan nan nan nan nan nan nan nan nan nan nan nan nan nan nan nan nan nan nan nan nan nan nan nan 310 314 310 299 293 299 308 311 308 303 307 315 318 323 321 320 322 323 326 324 319 318 314 314 315 303 294 295
nan nan nan nan nan nan nan nan nan nan nan nan nan nan nan nan nan nan nan nan nan nan nan nan nan nan nan nan nan nan nan nan nan nan 309 313 304 296 296 296 294 297 302 302 306 313 315 317 317 316 316 319 322 329 326 325 324 317 314 305 302 307 315
nan nan nan nan nan nan nan nan nan nan nan nan nan nan nan nan nan nan nan nan nan nan nan nan nan nan nan nan nan nan nan 271 288 299 300 295 292 294 291 nan 297 302 305 307 310 311 306 308 312 318 315 314 323 325 324 324 309 310 309 308 311 314 314
nan nan nan nan nan nan nan nan nan nan nan nan nan nan nan nan nan nan nan nan nan nan nan nan nan nan nan nan nan nan nan nan 280 274 279 287 291 288 287 291 299 302 298 294 296 298 300 303 308 303 305 315 318 310 305 299 306 306 307 311 312 314 314
nan nan nan nan nan nan nan nan nan nan nan nan nan nan nan nan nan nan nan nan nan nan nan nan nan nan nan nan nan nan nan 268 274 283 281 280 283 289 289 288 290 292 293 288 288 294 299 301 301 303 303 305 301 302 304 303 302 304 307 312 315 316 315
nan nan nan nan nan nan nan nan nan nan nan nan nan nan nan nan nan nan nan nan nan nan nan nan nan nan nan nan nan nan nan nan nan nan 282 285 284 285 284 287 288 288 289 292 293 291 289 295 301 304 305 301 302 302 299 302 305 308 311 316 318 317 316
nan nan nan nan nan nan nan nan nan nan nan nan nan nan nan nan nan nan nan nan nan nan nan nan nan nan nan nan nan nan nan nan nan 264 273 281 281 276 274 277 281 281 283 285 287 286 290 293 296 302 300 301 302 300 303 305 307 310 313 316 318 318 318
nan nan nan nan nan nan nan nan nan nan nan nan nan nan nan nan nan nan nan nan nan nan nan nan nan nan nan nan nan nan nan nan 249 251 258 258 258 260 267 270 273 273 273 274 280 286 289 290 293 294 297 298 299 301 303 305 307 310 313 316 318 320 321
nan nan nan nan nan nan nan nan nan nan 218 nan nan nan nan 230 223 223 nan 236 nan nan nan nan nan nan nan nan nan nan nan nan nan 249 248 252 255 258 258 260 260 262 265 272 278 280 283 287 290 292 294 296 299 301 303 305 307 310 314 315 316 318 314
nan nan nan nan 229 231 nan nan nan nan 217 nan nan nan nan 229 222 229 nan 236 244 nan nan nan nan nan nan nan nan nan nan nan nan 245 249 250 253 256 264 266 269 270 269 268 271 278 283 286 287 290 293 297 300 302 302 304 307 310 313 314 312 305 303
nan nan nan 221 224 226 225 nan 210 nan 222 nan nan nan 225 227 229 237 242 239 246 nan nan nan nan nan nan 244 242 242 nan 245 242 246 251 257 259 261 262 265 269 271 272 275 279 279 280 283 286 289 292 295 298 298 301 303 309 310 307 303 302 301 301
nan nan 222 nan 226 230 220 209 211 nan nan nan nan 227 232 233 237 241 245 247 246 nan 249 248 243 237 233 237 242 243 242 247 245 242 246 250 252 255 260 265 270 274 275 278 279 277 278 284 287 290 291 293 294 297 299 305 304 298 300 300 299 298 300
nan nan nan 223 230 225 220 nan 219 nan 236 nan nan 242 238 239 240 244 241 243 242 252 255 255 255 251 246 244 247 252 251 249 248 248 250 253 259 261 264 264 266 272 274 275 276 279 280 282 285 288 290 292 293 295 299 297 294 296 296 297 297 296 297
nan nan nan nan 219 209 205 217 229 nan nan nan nan 252 250 245 249 252 251 246 247 253 258 258 254 254 255 255 258 259 257 256 255 255 256 256 259 262 263 266 270 273 275 276 276 275 277 279 281 284 288 289 291 294 295 291 292 292 292 293 294 294 295
nan nan nan 196 209 211 nan nan nan nan nan nan nan 242 249 253 nan 245 250 247 247 253 260 258 258 258 259 261 261 263 262 259 258 259 260 261 263 264 265 267 269 272 279 281 279 277 277 278 279 281 282 287 291 294 292 289 289 288 288 291 293 294 295
nan nan nan 192 nan nan 211 nan nan nan nan nan nan nan 239 nan nan nan nan 231 233 238 247 256 251 256 259 258 255 255 255 257 257 259 260 261 264 268 270 270 272 275 276 278 281 282 280 278 278 280 280 285 290 290 286 284 283 284 287 290 292 294 294
nan nan nan nan nan nan nan nan nan nan nan nan nan nan nan nan nan nan nan nan nan nan nan nan 246 nan 245 247 247 250 253 253 256 262 266 268 269 270 271 272 275 276 278 280 284 286 286 283 283 281 279 278 280 282 281 281 282 285 287 290 291 292 294
nan nan nan nan nan nan nan nan nan nan nan nan nan nan nan nan nan nan nan nan nan nan nan nan nan nan 243 249 251 253 258 262 266 271 274 276 276 279 281 279 278 279 279 281 283 285 284 283 282 279 274 272 275 276 278 282 284 287 289 292 293 293 293
nan nan nan nan nan nan nan nan nan nan nan nan nan nan nan nan nan nan 239 239 240 nan nan nan nan nan nan nan nan nan 267 269 273 277 nan 280 282 283 285 285 285 284 281 280 280 279 276 277 278 274 272 272 275 279 281 281 284 288 289 289 288 288 288
nan nan nan nan nan nan nan nan nan nan nan nan nan nan nan nan nan nan nan nan nan nan nan nan nan nan nan nan nan nan 257 259 262 269 274 276 277 281 285 286 282 278 276 276 275 271 268 270 272 272 273 275 275 276 277 279 282 284 283 282 283 286 287
nan 240 245 nan nan nan nan nan nan nan nan nan nan nan nan nan nan nan nan nan nan nan nan nan 247 251 254 254 258 258 258 262 271 276 278 279 279 278 282 286 284 280 277 273 270 266 266 268 270 272 274 276 277 279 279 281 283 284 283 280 281 283 283
nan 238 nan nan nan nan nan nan nan nan nan nan nan nan nan nan nan nan nan nan nan nan nan nan nan 252 255 256 257 256 258 261 263 267 272 273 273 272 273 277 282 283 280 275 272 272 271 271 272 274 276 278 280 280 281 280 279 281 283 284 284 284 286
nan nan nan 242 nan nan nan nan nan nan nan nan nan nan nan nan nan nan nan nan nan nan nan nan nan nan nan nan nan 258 260 262 264 266 267 266 265 267 269 273 277 279 278 275 273 273 274 275 276 277 278 280 282 284 285 286 287 285 284 284 283 282 283